Lemur-2 RoundTripper

operational
NORAD ID: 62711 Int'l Des: 2025-009 Owner: SPIRE Country: US Constellation: spire
LEOCIRCULARRETROGRADESSO

Lemur-2 RoundTripperについて

説明を読み込み中...

リアルタイム位置

3D地球を読み込み中...

次回通過

高度履歴

Altitude vs Time

uPlot chart will show altitude changes over time

軌道要素

1 62711U 25009DG 26093.60518299 .00017527 00000-0 13182-2 0 9992
2 62711 97.7255 176.4681 0005030 56.1490 304.0213 15.02602116 66425
Epoch: Apr 3, 2026 • Age: 10 hours

現在のステータス

高度 569.5 km
速度 7.58 km/s
衛星直下点 82.26°N, 106.38°W
打ち上げ日 Jan 14, 2025
運用期間 1.2 years
タイプ other

技術仕様

分類 Payload
質量 7.60 kg
乾燥質量 7.60 kg
総質量 7.60 kg
長さ 0.30 m
直径 0.10 m
スパン 1.00 m
形状 Box+ 2 pan
製造者 SPIREG
バスタイプ Cubesat 3U
フェーズステータス In Orbit
所有者/国 SPIRE/US

大規模コンステレーション

Loading constellations...